TimeEST,TemperatureF,Dew PointF,Humidity,Sea Level PressureIn,VisibilityMPH,Wind Direction,Wind SpeedMPH,Gust SpeedMPH,PrecipitationIn,Events,Conditions,WindDirDegrees,DateUTC
12:53 AM,34.0,26.1,73,29.73,10.0,Calm,Calm,-,N/A,,Overcast,0,2012-02-24 05:53:00
1:53 AM,35.1,27.0,72,29.73,10.0,Calm,Calm,-,N/A,,Overcast,0,2012-02-24 06:53:00
2:26 AM,35.6,28.4,75,29.74,5.0,East,3.5,-,0.00,Snow,Light Snow,100,2012-02-24 07:26:00
2:43 AM,33.8,28.4,81,29.76,2.0,North,3.5,-,0.01,Snow,Light Snow,10,2012-02-24 07:43:00
2:50 AM,33.8,30.2,87,29.75,1.0,NE,3.5,-,0.02,Snow,Light Snow,50,2012-02-24 07:50:00
2:53 AM,33.1,30.0,89,29.74,0.8,ENE,3.5,-,0.03,Snow,Light Snow,60,2012-02-24 07:53:00
3:14 AM,33.8,32.0,93,29.76,0.8,Calm,Calm,-,0.05,Snow,Light Snow,0,2012-02-24 08:14:00
3:53 AM,33.1,32.0,96,29.75,0.5,Calm,Calm,-,0.13,Fog-Snow,Snow,0,2012-02-24 08:53:00
4:08 AM,33.8,30.2,87,29.73,0.2,NE,4.6,-,0.04,Fog-Snow,Heavy Snow,50,2012-02-24 09:08:00
4:21 AM,33.8,32.0,93,29.74,0.5,Calm,Calm,-,0.06,Fog-Snow,Snow,0,2012-02-24 09:21:00
4:28 AM,33.8,32.0,93,29.72,0.8,Calm,Calm,-,0.07,Snow,Light Snow,0,2012-02-24 09:28:00
4:50 AM,33.8,30.2,87,29.72,1.0,North,3.5,-,0.10,Snow,Light Snow,360,2012-02-24 09:50:00
4:53 AM,33.1,32.0,96,29.71,1.2,North,4.6,-,0.10,Snow,Light Snow,350,2012-02-24 09:53:00
5:11 AM,33.8,32.0,93,29.72,2.0,Calm,Calm,-,0.01,Snow,Light Snow,0,2012-02-24 10:11:00
5:18 AM,33.8,32.0,93,29.72,1.5,Calm,Calm,-,0.02,Snow,Light Snow,0,2012-02-24 10:18:00
5:33 AM,33.8,30.2,87,29.71,1.5,Calm,Calm,-,0.03,Snow,Light Snow,0,2012-02-24 10:33:00
5:53 AM,33.1,30.9,92,29.71,1.5,WNW,3.5,-,0.03,Snow,Light Snow,290,2012-02-24 10:53:00
6:04 AM,33.8,32.0,93,29.71,2.0,Calm,Calm,-,0.01,Snow,Light Snow,0,2012-02-24 11:04:00
6:22 AM,33.8,30.2,87,29.69,3.0,NNE,3.5,-,0.01,,Overcast,30,2012-02-24 11:22:00
6:30 AM,33.8,32.0,93,29.70,3.0,Calm,Calm,-,0.01,,Overcast,0,2012-02-24 11:30:00
6:39 AM,33.8,32.0,93,29.70,3.0,Calm,Calm,-,0.01,,Overcast,0,2012-02-24 11:39:00
6:53 AM,33.1,32.0,96,29.70,3.0,Calm,Calm,-,0.01,,Overcast,0,2012-02-24 11:53:00
7:01 AM,33.8,32.0,93,29.70,2.0,Calm,Calm,-,N/A,,Overcast,0,2012-02-24 12:01:00
7:39 AM,33.8,30.2,87,29.71,3.0,NNW,4.6,-,N/A,,Overcast,330,2012-02-24 12:39:00
7:53 AM,33.1,32.0,96,29.70,3.0,Calm,Calm,-,N/A,,Overcast,0,2012-02-24 12:53:00
8:02 AM,33.8,30.2,87,29.71,2.5,North,4.6,-,N/A,,Overcast,360,2012-02-24 13:02:00
8:31 AM,33.8,32.0,93,29.68,1.5,NNE,4.6,-,N/A,,Overcast,20,2012-02-24 13:31:00
8:46 AM,33.8,32.0,93,29.69,2.0,North,4.6,-,N/A,,Overcast,350,2012-02-24 13:46:00
8:53 AM,34.0,32.0,92,29.69,3.0,North,4.6,-,N/A,,Overcast,350,2012-02-24 13:53:00
9:53 AM,34.0,32.0,92,29.67,1.5,North,3.5,-,0.00,,Overcast,350,2012-02-24 14:53:00
10:53 AM,35.1,33.1,92,29.63,1.0,NNE,3.5,-,N/A,,Overcast,20,2012-02-24 15:53:00
11:22 AM,35.6,33.8,93,29.62,1.2,Calm,Calm,-,N/A,,Overcast,0,2012-02-24 16:22:00
11:29 AM,35.6,33.8,93,29.62,1.2,Calm,Calm,-,N/A,,Overcast,0,2012-02-24 16:29:00
11:36 AM,35.6,33.8,93,29.62,1.2,North,3.5,-,N/A,,Overcast,360,2012-02-24 16:36:00
11:53 AM,35.1,34.0,96,29.61,1.2,Calm,Calm,-,N/A,,Overcast,0,2012-02-24 16:53:00
12:00 PM,35.6,33.8,93,29.61,3.0,Calm,Calm,-,N/A,,Overcast,0,2012-02-24 17:00:00
12:14 PM,35.6,33.8,93,29.60,2.0,Calm,Calm,-,N/A,,Overcast,0,2012-02-24 17:14:00
12:21 PM,35.6,33.8,93,29.59,1.5,Calm,Calm,-,N/A,,Overcast,0,2012-02-24 17:21:00
12:53 PM,35.1,34.0,96,29.58,1.0,Calm,Calm,-,0.02,Rain,Light Rain,0,2012-02-24 17:53:00
1:53 PM,36.0,34.0,93,29.55,1.2,Calm,Calm,-,0.02,,Overcast,0,2012-02-24 18:53:00
2:53 PM,36.0,34.0,93,29.51,1.2,Calm,Calm,-,N/A,,Overcast,0,2012-02-24 19:53:00
3:53 PM,36.0,34.0,93,29.47,1.8,NNW,3.5,-,N/A,,Overcast,340,2012-02-24 20:53:00
4:53 PM,36.0,35.1,97,29.43,0.8,Calm,Calm,-,N/A,,Overcast,0,2012-02-24 21:53:00
5:13 PM,35.6,35.6,100,29.40,0.8,Calm,Calm,-,0.01,Rain,Light Rain,0,2012-02-24 22:13:00
5:34 PM,35.6,33.8,93,29.41,1.2,Calm,Calm,-,0.05,Rain,Rain,0,2012-02-24 22:34:00
5:53 PM,36.0,34.0,93,29.40,2.0,Calm,Calm,-,0.14,Rain,Rain,0,2012-02-24 22:53:00
5:57 PM,35.6,35.6,100,29.40,1.8,Variable,4.6,-,0.04,Rain,Rain,0,2012-02-24 22:57:00
6:20 PM,35.6,33.8,93,29.40,1.0,Calm,Calm,-,0.08,Rain,Light Rain,0,2012-02-24 23:20:00
6:53 PM,36.0,35.1,97,29.39,1.0,North,4.6,-,0.16,Rain,Rain,360,2012-02-24 23:53:00
6:59 PM,35.6,35.6,100,29.41,3.0,WNW,8.1,-,0.00,Rain,Light Rain,300,2012-02-24 23:59:00
7:36 PM,35.6,33.8,93,29.38,3.0,Calm,Calm,-,0.05,Rain,Light Rain,0,2012-02-25 00:36:00
7:45 PM,35.6,35.6,100,29.38,4.0,Calm,Calm,-,0.05,Rain,Light Rain,0,2012-02-25 00:45:00
7:53 PM,36.0,34.0,93,29.37,4.0,North,3.5,-,0.05,,Overcast,350,2012-02-25 00:53:00
8:01 PM,35.6,33.8,93,29.36,1.8,NNW,3.5,-,N/A,,Overcast,330,2012-02-25 01:01:00
8:05 PM,35.6,33.8,93,29.36,1.5,Calm,Calm,-,N/A,,Overcast,0,2012-02-25 01:05:00
8:10 PM,35.6,33.8,93,29.37,2.5,NW,3.5,-,N/A,,Overcast,310,2012-02-25 01:10:00
8:18 PM,35.6,33.8,93,29.36,3.0,NW,4.6,-,N/A,,Overcast,310,2012-02-25 01:18:00
8:36 PM,35.6,35.6,100,29.37,3.0,Calm,Calm,-,N/A,,Overcast,0,2012-02-25 01:36:00
8:53 PM,36.0,34.0,93,29.37,5.0,Calm,Calm,-,N/A,,Overcast,0,2012-02-25 01:53:00
9:08 PM,35.6,33.8,93,29.37,2.5,Calm,Calm,-,N/A,,Overcast,0,2012-02-25 02:08:00
9:18 PM,35.6,35.6,100,29.37,3.0,Calm,Calm,-,N/A,,Overcast,0,2012-02-25 02:18:00
9:26 PM,35.6,33.8,93,29.36,3.0,Calm,Calm,-,N/A,,Overcast,0,2012-02-25 02:26:00
9:45 PM,35.6,35.6,100,29.36,2.5,Calm,Calm,-,N/A,,Overcast,0,2012-02-25 02:45:00
9:53 PM,35.1,34.0,96,29.35,3.0,Calm,Calm,-,N/A,,Overcast,0,2012-02-25 02:53:00
10:01 PM,35.6,33.8,93,29.36,2.0,WNW,3.5,-,N/A,,Overcast,290,2012-02-25 03:01:00
10:08 PM,35.6,33.8,93,29.36,1.0,Calm,Calm,-,N/A,,Overcast,0,2012-02-25 03:08:00
10:25 PM,35.6,33.8,93,29.35,3.0,Calm,Calm,-,N/A,,Overcast,0,2012-02-25 03:25:00
10:46 PM,35.6,33.8,93,29.35,4.0,South,4.6,-,N/A,,Overcast,180,2012-02-25 03:46:00
10:53 PM,35.1,34.0,96,29.35,4.0,South,5.8,-,N/A,,Mostly Cloudy,180,2012-02-25 03:53:00
11:07 PM,35.6,33.8,93,29.35,5.0,South,8.1,-,N/A,,Mostly Cloudy,190,2012-02-25 04:07:00
11:21 PM,35.6,33.8,93,29.36,6.0,SSW,4.6,-,N/A,,Scattered Clouds,210,2012-02-25 04:21:00
11:53 PM,39.0,30.9,73,29.36,10.0,WSW,10.4,20.7,0.01,,Mostly Cloudy,250,2012-02-25 04:53:00